C/2014 OE4 ( PanSTARRS )

Japanese version
Home page
Updated on May 20, 2019

---------------------------------------------------------------------

* Profile

Discovery Date July 26, 2014
Magnitude 20.7 mag
Discoverer Pan-STARRS 1 telescope (Haleakala)

* Pictures

* Orbital Elements

Epoch 2016 Nov. 28.0 TT = JDT 2457720.5
T 2016 Dec. 10.74953 TT                                 MPCW
q   6.2443050            (2000.0)            P               Q
z  +0.0000868      Peri.   65.74339     -0.08368201     +0.50406412
 +/-0.0000001      Node   240.40004     -0.74841500     +0.53775540
e   0.9994578      Incl.   81.34886     +0.65793032     +0.67582431
From 1661 observations 2014 May 8-2019 Mar. 22, mean residual 0".4.

* Magnitudes Graph

        m1 = -4.0 + 5 log d + 20 log r(t - 250)

---------------------------------------------------------------------

The orbital elements are published on M.P.E.C. 2019-J142.
The magnitudes graphs are made with Comet for Windows.

---------------------------------------------------------------------

Copyright(C) Seiichi Yoshida (comet@aerith.net). All rights reserved.